Regional Weather Roundup
Issued by NWS

Home | Current Version | Previous Version | Graphics & Text | Print | Product List | Glossary On
Versions: 1 2 3 4 5 6 7 8 9 10 11 12 13 14 15 16 17 18 19 20 21 22 23 24 25 26 27 28 29 30 31 32 33 34 35 36 37 38 39 40 41 42 43 44 45 46 47 48 49 50
000
ASUS43 KLMK 280410
RWRKY
KENTUCKY REGIONAL WEATHER ROUNDUP
NATIONAL WEATHER SERVICE LOUISVILLE KY
1200 AM EDT SUN AUG 28 2016

NOTE "FAIR" INDICATES FEW OR NO CLOUDS BELOW 12,000 FEET
WITH NO SIGNIFICANT WEATHER AND/OR OBSTRUCTIONS TO VISIBILITY.

KYZ001>023-026-027-061>063-070>075-280500-
WESTERN AND SOUTH CENTRAL KENTUCKY

CITY           SKY/WX    TMP DP  RH WIND       PRES   REMARKS
PADUCAH        CLEAR     75  72  90 SE3       30.08S
HENDERSON      PTCLDY    77  72  83 NE3       30.08S
OWENSBORO      MOCLDY    82  77  85 E5        30.12R HX  90
HOPKINSVILLE   PTCLDY    75  71  87 E2        30.11R
BOWLING GREEN  PTCLDY    78  72  81 SE3       30.13R
GLASGOW        PTCLDY    73  73 100 N3        30.14R
$$

KYZ024-025-028>034-038-045-046-053-280500-
NORTH CENTRAL KENTUCKY

CITY           SKY/WX    TMP DP  RH WIND       PRES   REMARKS
LOUISVILLE/SDF MOCLDY    81  71  71 CALM      30.13R
LOUISVILLE/LOU MOCLDY    80  71  74 CALM      30.14R
FORT KNOX      CLEAR     73  71  92 E2        30.12R
$$

KYZ035>037-039>044-047>052-055>060-089>105-280500-
NORTHEAST KENTUCKY

CITY           SKY/WX    TMP DP  RH WIND       PRES   REMARKS
LEXINGTON      MOCLDY    76  71  85 CALM      30.16R
COVINGTON      MOCLDY    75  72  90 CALM      30.15S
FRANKFORT      CLEAR     77  71  82 CALM      30.14R
$$

KYZ054-064>069-076>088-106>120-280500-
SOUTHEAST KENTUCKY

CITY           SKY/WX    TMP DP  RH WIND       PRES   REMARKS
JACKSON        CLOUDY    78  73  84 CALM      30.18R
LONDON         CLOUDY    75  69  81 E3        30.17S
SOMERSET       MOCLDY    73  66  78 CALM      30.15F
MIDDLESBORO    PTCLDY    69  69  99 CALM      30.21S
MONTICELLO     NOT AVBL
$$





USA.gov is the U.S. government's official web portal to all federal, state and local government web resources and services.